Home > Weather > Kuala Lumpur > Past weeks

Flag for Malaysia Past Weather in Kuala Lumpur, Malaysia — Yesterday and Last 2 Weeks

Now
77 °F

Partly cloudy.


Feels Like: 78 °F
Forecast: 72 / 87 °F
Wind: 1 mph from East

Location: Sultan Abdul Aziz Shah-Subang

Current Time: Jul 29, 2016 at 6:30:41 AM

Latest Report: Jul 29, 2016 at 6:00 AM


Visibility: 3 mi

Pressure: 29.80 "Hg

Humidity: 89%

Dew Point: 73 °F

Location of Kuala LumpurLocation

Past Weather in Kuala Lumpur — Graph

°F

Kuala Lumpur Temperature Yesterday

Maximum temperature yesterday: 91 °F (at 1:00 PM)
Minimum temperature yesterday: 77 °F (at 2:00 AM)
Average temperature yesterday: 82 °F

High & Low Weather Summary for the Past Weeks

 TemperatureHumidityPressure
High93 °F (Jul 17, 4:00 PM)100% (Jul 16, 7:00 PM)29.92 "Hg (Jul 16, 7:00 PM)
Low73 °F (Jul 22, 5:00 PM)52% (Jul 17, 2:00 PM)29.71 "Hg (Jul 14, 4:00 PM)
Average82 °F81%29.81 "Hg
* Reported Jul 14 5:00 AM — Jul 29 5:00 AM, Kuala Lumpur, Weather by CustomWeather, © 2016

Note: Actual official high and low records may vary slightly from our data, if they occured in-between our weather recording intervals... More about our weather records

Advertising

Kuala Lumpur Weather History for the Previous 24 Hours

Scroll right to see more
 ConditionsComfort  
Time TempWeatherWind HumidityBarometerVisibility
5:00 AM
Fri, Jul 29
77 °FPassing clouds.1 mph94%29.80 "Hg3 mi
4:00 AM77 °FPassing clouds.1 mph94%29.80 "Hg2 mi
3:00 AM77 °FPassing clouds.No wind94%29.83 "Hg3 mi
2:00 AM77 °FPassing clouds.No wind94%29.83 "Hg3 mi
1:00 AM79 °FPassing clouds.No wind89%29.83 "Hg3 mi
12:00 AM79 °FPassing clouds.1 mph89%29.86 "Hg4 mi
11:00 PM
Thu, Jul 28
79 °FPassing clouds.No wind89%29.83 "Hg4 mi
10:00 PM81 °FPassing clouds.2 mph84%29.83 "Hg4 mi
9:00 PM82 °FPassing clouds.5 mph79%29.83 "Hg4 mi
8:00 PM84 °FBroken clouds.3 mph74%29.80 "HgN/A
7:00 PM84 °FPartly sunny.3 mph70%29.77 "HgN/A
6:00 PM86 °FPartly sunny.6 mph66%29.77 "HgN/A
5:00 PM86 °FPartly sunny.8 mph66%29.74 "HgN/A
4:00 PM88 °FBroken clouds.9 mph62%29.74 "HgN/A
3:00 PM88 °FBroken clouds.7 mph66%29.77 "HgN/A
2:00 PM91 °FBroken clouds.7 mph56%29.77 "HgN/A
1:00 PM91 °FBroken clouds.5 mph56%29.80 "HgN/A
12:00 PM90 °FPartly sunny.2 mph63%29.83 "HgN/A
11:00 AM86 °FBroken clouds.2 mph70%29.86 "Hg6 mi
10:00 AM82 °FPartly sunny.5 mph74%29.83 "Hg6 mi
9:00 AM81 °FPartly sunny.8 mph84%29.83 "Hg4 mi
8:00 AM77 °FPartly cloudy.3 mph94%29.80 "HgN/A
7:00 AM77 °FPartly cloudy.No wind89%29.83 "Hg5 mi
6:00 AM77 °FPartly cloudy.No wind94%29.80 "Hg4 mi
Weather by CustomWeather, © 2016

See weather overviewHow to use our weather pages